Погода в Лиски

Погода в Лиски : погода сейчас, прогноз погоды и архив. Всё, что Вы хотите узнать о погоде в Лиски!

Поиск расширенной информации на нашем сайте:

Другие новости

Новости СМИ2

Главная страница сайта

Новости сайта

02.10.2013

Напоминаем, что на нашем новом сайте вы можете получить высокодетализированные прогнозы погоды по пунктам России, СНГ и мира (включающие важные для авиации метеовеличины, такие как направление и скорость ветра, видимость, явления погоды, количество и форма облачности, нижняя и верхняя граница облачности), а также ознакомиться с разнообразными материалами по авиационной метеорологии и подборкой полезных ссылок на эту тему.

Сайт Метеоцентр.Азия посвящён разработке технологий оптимизации авиаметеорологического обслуживания, включая проектирование и перспективное создание нескольких автоматизированных авиаметеорологических систем:
- система выпуска высокодетальных прогностических карт явлений погоды для нижнего воздушного пространства по России и ближнему зарубежью;
- система верификации прогнозов TAF (выпускаемых синоптиками официальных АМСГ РФ и ближнего зарубежья) и AUTOTAF (выпускаемых сайтом Метеоцентр.Азия) - выявление ошибок, онлайн-сопоставление с фактической погодой METAR, автоматическое внесение коррективов в прогнозы при резком отклонении фактической погоды от прогноза, подсчёт оправдываемости прогнозов по элементам и в целом;
- система обработки, анализа и отображения авиаметеорологической информации для применения провайдерами метеорологической информации.

Рекомендуем: У нас. http://wwprint.ru/ полноцветная печать

Погода в Лиски - сегодня

Время (UTC), дата Ветер
(°,м/с) 
Видим.   Явления Облачность Т
(°С)
Тd
(°С)
f(%) Тe
(°С)
Pmin
(гПа)
dP
(гПа)
Po
(мм)
O2
(г/м3)
Тmin Tmax R s Состояние
почвы
09 26.04.17 230 (ЮЗ) 5-10{13}  20000 м    8/0 средняя, верхняя 
[Ac trans|Ci fib]
+15.8 -2.5 28 +16  1025.2  0.2  759  289           
12 26.04.17 220 (ЮЗ) 5-10{14}  20000 м    8/0 средняя, верхняя 
[Ac trans|Ci fib]
+17.6 -2.6 25 +18  1024.2  -0.9  758  287           
15 26.04.17 220 (ЮЗ) 5-10{12}  20000 м    3/0 верхняя 
[Ci fib]
+16.8 -3.8 24 +17  1022.8  -1.4  757  288    +18.1       
18 26.04.17 210 (ЮЗ) 3{10}  20000 м    3/0 верхняя 
[Ci fib]
+12.7 -1.2 38 +13  1024  0.9  758  292           
21 26.04.17 210 (ЮЗ) 20000 м    4/0 верхняя 
[Ci fib]
+10.3 -0.4 47 +10  1024.7  0.6  758  294           
00 27.04.17 200 (Ю) 20000 м    ясно 
+7.9 -0.3 56 +8  1025  0.2  758  297           
03 27.04.17 160 (Ю) 20000 м    6/0 средняя, верхняя 
[Ac trans|Ci fib]
+5.8 +0.1 67 +6  1025.3  0.2  758  299  +5.6         
06 27.04.17 200 (Ю) 20000 м    3/0 верхняя 
[Ci fib]
+14.6 +1.6 41 +14  1025  0.1  758  290           
09 27.04.17 200 (Ю) 6-10{11}  20000 м    3/0 верхняя 
[Ci fib]
+18.8 -1.7 25 +19  1024.2  -0.6  758  286           
12 27.04.17 190 (Ю) 6-10{13}  20000 м    6/0 верхняя 
[Ci fib]
+21.4 -2.9 19 +21  1022.3  -1.8  757  283           
15 27.04.17 190 (Ю) 5{11}  20000 м    8/0 верхняя 
[Ci fib]
+21 -4.8 17 +21  1021.5  -0.8  756  283    +22.4       
18 27.04.17 180 (Ю) 20000 м    3/0 верхняя 
[Ci fib]
+15.5 -2.2 30 +16  1022.4  0.7  756  289           
21 27.04.17 160 (Ю) 10 км    ясно 
+13 -0.3 40 +13  1023  0.5  757  291           
00 28.04.17 210 (ЮЗ) 10 км    ясно 
+11.2 +0.6 48 +11  1023.3  0.2  757  293           
03 28.04.17 170 (Ю) 20000 м    3/0 верхняя 
[Ci fib]
+9.2 +0.9 56 +9  1023.7  0.2  757  295  +8.6         
06 28.04.17 170 (Ю) 20000 м    3/0 верхняя 
[Ci fib]
+15.8 +2.8 42 +17  1023.6  0.3  757  288           
09 28.04.17 180 (Ю) 20000 м    4/0 верхняя 
[Ci fib]
+20.8 +0.3 25 +21  1022.5  -0.9  757  283           
12 28.04.17 170 (Ю) 4{10}  20000 м    4/0 верхняя 
[Ci fib]
+23.3 +2 25 +23  1020.8  -1.5  756  280           
15 28.04.17 160 (Ю) 3{10}  20000 м    4/0 верхняя 
[Ci fib]
+23.2 +2.5 26 +23  1019.6  -1.3  755  280    +24.2       
18 28.04.17 140 (ЮВ) 20000 м    ясно 
+17.6 +3.8 40 +19  1020.5  0.7  755  285           
21 28.04.17 140 (ЮВ) 20000 м    ясно 
+14 +3.7 50 +15  1020.6  755  289           
00 29.04.17 140 (ЮВ) 20000 м    ясно 
+12 +3.2 55 +12  1020.5  -0.2  755  291           
03 29.04.17 120 (ЮВ) 20000 м    ясно 
+9.8 +1.7 57 +10  1020.6  755  293  +9.6         
06 29.04.17 120 (ЮВ) 20000 м    ясно 
+15.4 +1.2 38 +16  1020.1  -0.2  755  288           
09 29.04.17 150 (ЮВ) 20000 м    ясно 
+19.5 +1.5 30 +21  1019.7  -0.3  755  284           
Время (UTC), дата Ветер
(°,м/с) 
Видим.   Явления Облачность Т
(°С)
Тd
(°С)
f(%) Тe
(°С)
Pmin
(гПа)
dP
(гПа)
Po
(мм)
O2
(г/м3)
Тmin Tmax R s Состояние
почвы

Для получения пояснительной информации подведите курсор к названию столбца.

ПОГОДА в Лиски - архив

Всё, что Вы хотите узнать о погоде в Лиски - удобно и подробно!

Выберите нужную дату (начиная с 1 января 2015* года) и нажмите кнопку "Найти".
Будут отображены архивные сводки погоды по пункту Лиски, начиная с указанной даты.


Отображать данные в формате CSV (для использования в таблицах Excel)


Внимание! Наш архив погоды предназначен исключительно для личного некоммерческого использования в познавательных целях. Если Вам необходимы официальные справки о состоянии погоды (для производственных, юридических, коммерческих и т.п. целей), обращайтесь в органы Росгидромета.

*Примечание: данная дата относится к архиву по метеостанциям СССР (Россия, СНГ, Балтия).
Архив по метеостанциям Зарубежной Европы и Азии (кроме Китая) хранится 10 дней, по другим регионам земного шара (Китай, Африка, Америка, Австралия, Океания) - 1 день.

Лиски - район местоположения метеостанции


Название, широта, долгота, высота метеостанции:
Лиски 51°ш. 39.5°д. 115 м над ур. моря [Российская Федерация]

Дополнительная информация

В oтличие oт бoльшинства пoгoдных сайтoв мы публикуем пoдрoбную метеoинфoрмацию в детальнoм прoфессиoнальнoм фoрмате.

Характеристики температуры и влажнoсти вoздуха измеряются на высoте 2 м в тени вдали oт зданий и деревьев.
Скoрoсть ветра измеряется на высoте 10 м (на урoвне рoста челoвека скoрoсть ветра ниже в 1.5-2 раза). Если метеoстанция нахoдится в гoрoде или в лесу, тo скoрoсть ветра занижена на 2-4 м/с пo сравнению с oткрытым местoм. Скoрoсть ветра над акватoриями крупных рек и oзёр, а также на вершинах хoлмoв на 2-5 м/с выше, чем в oбычных услoвиях.
Атмoсфернoе давление в разных тoчках местнoсти мoжет значительнo oтличаться oт давления на метеoстанции, в зависимoсти oт услoвий рельефа (при пoдъёме на 10 м давление пoнижается примернo на 1 мм рт.ст.).